�������l�o���
Date,Time,MP-1(��Sv/h),MP-2(��Sv/h),MP-3(��Sv/h),MP-4(��Sv/h),MP-5(��Sv/h),MP-6(��Sv/h),MP-7(��Sv/h),����,����(m/s),���J
2022/07/14,00:00,0.145,0.135,0.211,0.205,0.209,0.114,0.074,��,5.3,�L
2022/07/14,00:10,0.145,0.134,0.214,0.204,0.208,0.115,0.075,��,5.8,�L
2022/07/14,00:20,0.144,0.135,0.212,0.205,0.210,0.114,0.074,��,4.4,�L
2022/07/14,00:30,0.146,0.135,0.210,0.204,0.208,0.114,0.075,���k��,4.0,�L
2022/07/14,00:40,0.145,0.135,0.212,0.204,0.211,0.115,0.074,���k��,3.9,�L
2022/07/14,00:50,0.143,0.135,0.211,0.206,0.209,0.114,0.074,���k��,4.2,�L
2022/07/14,01:00,0.145,0.135,0.211,0.204,0.207,0.114,0.074,��,4.4,�L
2022/07/14,01:10,0.144,0.136,0.212,0.206,0.211,0.114,0.074,���k��,4.1,�L
2022/07/14,01:20,0.143,0.135,0.208,0.203,0.208,0.113,0.075,���k��,4.0,�L
2022/07/14,01:30,0.144,0.135,0.211,0.203,0.207,0.113,0.074,���k��,4.3,�L
2022/07/14,01:40,0.144,0.136,0.211,0.204,0.208,0.115,0.075,���k��,3.8,�L
2022/07/14,01:50,0.144,0.134,0.211,0.202,0.208,0.114,0.074,���k��,3.2,�L
2022/07/14,02:00,0.144,0.136,0.211,0.205,0.209,0.113,0.074,���k��,2.9,�L
2022/07/14,02:10,0.143,0.134,0.210,0.205,0.209,0.114,0.074,���k��,2.0,��
2022/07/14,02:20,0.145,0.136,0.213,0.204,0.207,0.113,0.074,���k��,1.9,��
2022/07/14,02:30,0.143,0.136,0.211,0.204,0.209,0.114,0.074,�k��,1.5,��
2022/07/14,02:40,0.144,0.135,0.212,0.204,0.210,0.113,0.075,�k�k��,1.7,��
2022/07/14,02:50,0.145,0.135,0.213,0.204,0.207,0.113,0.073,�k,1.8,�L
2022/07/14,03:00,0.144,0.135,0.211,0.205,0.210,0.114,0.075,�k�k��,2.6,��
2022/07/14,03:10,0.144,0.135,0.213,0.203,0.209,0.114,0.073,�k�k��,2.3,��
2022/07/14,03:20,0.145,0.135,0.212,0.206,0.206,0.114,0.073,�k,3.1,�L
2022/07/14,03:30,0.144,0.135,0.211,0.205,0.211,0.114,0.074,�k�k��,2.8,�L
2022/07/14,03:40,0.144,0.135,0.213,0.204,0.208,0.113,0.074,�k�k��,2.5,�L
2022/07/14,03:50,0.145,0.135,0.213,0.206,0.208,0.113,0.074,�k,2.0,��
2022/07/14,04:00,0.143,0.134,0.213,0.205,0.211,0.114,0.074,�k�k��,2.8,��
2022/07/14,04:10,0.145,0.136,0.213,0.205,0.209,0.114,0.074,�k�k��,3.0,��
2022/07/14,04:20,0.145,0.134,0.212,0.206,0.208,0.113,0.074,�k�k��,2.7,�L
2022/07/14,04:30,0.143,0.134,0.213,0.204,0.210,0.115,0.075,�k,3.4,�L
2022/07/14,04:40,0.144,0.137,0.213,0.206,0.207,0.113,0.073,�k,3.6,�L
2022/07/14,04:50,0.143,0.134,0.211,0.205,0.211,0.113,0.074,�k,4.2,�L
2022/07/14,05:00,0.144,0.135,0.213,0.205,0.209,0.115,0.075,�k,5.0,�L
2022/07/14,05:10,0.145,0.135,0.211,0.206,0.207,0.114,0.074,�k,4.6,�L
2022/07/14,05:20,0.144,0.135,0.213,0.204,0.211,0.114,0.074,�k,4.2,�L
2022/07/14,05:30,0.145,0.137,0.212,0.206,0.209,0.115,0.074,�k�k��,4.4,�L
2022/07/14,05:40,0.146,0.136,0.213,0.205,0.209,0.114,0.075,�k�k��,4.3,�L
2022/07/14,05:50,0.143,0.135,0.213,0.204,0.209,0.114,0.074,�k�k��,4.7,�L
2022/07/14,06:00,0.145,0.135,0.212,0.206,0.207,0.115,0.073,�k,4.3,�L
2022/07/14,06:10,0.144,0.135,0.211,0.205,0.210,0.114,0.074,�k�k��,4.7,�L
2022/07/14,06:20,0.145,0.135,0.211,0.206,0.207,0.114,0.074,�k�k��,4.7,�L
2022/07/14,06:30,0.145,0.135,0.213,0.204,0.209,0.114,0.074,�k�k��,4.8,�L
2022/07/14,06:40,0.144,0.136,0.212,0.205,0.209,0.115,0.074,�k�k��,5.1,�L
2022/07/14,06:50,0.145,0.134,0.212,0.204,0.207,0.114,0.073,�k�k��,4.9,�L
2022/07/14,07:00,0.145,0.135,0.212,0.204,0.210,0.114,0.074,�k�k��,5.3,�L
2022/07/14,07:10,0.145,0.135,0.210,0.206,0.208,0.115,0.074,�k�k��,3.8,�L
2022/07/14,07:20,0.145,0.136,0.213,0.203,0.209,0.114,0.074,�k�k��,4.2,�L
2022/07/14,07:30,0.144,0.135,0.210,0.206,0.209,0.113,0.075,�k�k��,4.1,�L
2022/07/14,07:40,0.145,0.135,0.214,0.206,0.208,0.115,0.074,�k�k��,4.1,�L
2022/07/14,07:50,0.144,0.135,0.212,0.203,0.210,0.114,0.074,�k�k��,4.1,�L
2022/07/14,08:00,0.145,0.134,0.211,0.206,0.209,0.113,0.074,�k�k��,4.0,�L
2022/07/14,08:10,0.145,0.136,0.213,0.205,0.208,0.115,0.075,�k�k��,3.6,�L
2022/07/14,08:20,0.143,0.136,0.211,0.204,0.211,0.114,0.074,�k�k��,3.7,�L
2022/07/14,08:30,0.144,0.135,0.212,0.206,0.209,0.113,0.074,�k�k��,2.9,�L
2022/07/14,08:40,0.145,0.135,0.213,0.203,0.208,0.115,0.075,�k�k��,3.2,�L
2022/07/14,08:50,0.144,0.135,0.212,0.207,0.210,0.113,0.074,�k,2.1,�L
2022/07/14,09:00,0.145,0.136,0.212,0.204,0.206,0.114,0.075,�k,3.2,�L
2022/07/14,09:10,0.144,0.136,0.212,0.203,0.210,0.115,0.075,�k,2.8,�L
2022/07/14,09:20,0.145,0.135,0.212,0.205,0.208,0.114,0.074,�k,2.8,�L
2022/07/14,09:30,0.144,0.136,0.213,0.205,0.207,0.114,0.075,�k,2.9,�L
2022/07/14,09:40,0.144,0.136,0.211,0.204,0.211,0.115,0.075,�k,3.1,�L
2022/07/14,09:50,0.144,0.135,0.212,0.206,0.210,0.113,0.074,�k,2.9,�L
2022/07/14,10:00,0.145,0.137,0.214,0.205,0.207,0.113,0.075,�k,2.8,�L
2022/07/14,10:10,0.144,0.135,0.212,0.203,0.206,0.115,0.074,�k,2.6,�L
2022/07/14,10:20,0.145,0.136,0.211,0.206,0.210,0.113,0.074,�k,1.8,��
2022/07/14,10:30,0.146,0.134,0.212,0.207,0.210,0.114,0.074,�k�k��,2.5,��
2022/07/14,10:40,0.145,0.136,0.214,0.204,0.209,0.113,0.075,�k,2.4,��
2022/07/14,10:50,0.144,0.135,0.213,0.204,0.206,0.114,0.073,�k,3.2,�L
2022/07/14,11:00,0.145,0.135,0.211,0.205,0.209,0.114,0.075,�k�k��,2.9,�L
2022/07/14,11:10,0.146,0.135,0.212,0.207,0.211,0.113,0.073,�k,3.1,��
2022/07/14,11:20,0.144,0.136,0.215,0.205,0.209,0.114,0.073,�k�k��,2.8,��
2022/07/14,11:30,0.145,0.135,0.213,0.204,0.208,0.114,0.075,�k,2.6,��
2022/07/14,11:40,0.146,0.135,0.212,0.205,0.207,0.115,0.074,�k,2.7,��
2022/07/14,11:50,0.146,0.136,0.211,0.207,0.210,0.115,0.074,�k,3.6,��
2022/07/14,12:00,0.144,0.136,0.215,0.206,0.210,0.114,0.074,�k,3.6,��
2022/07/14,12:10,0.146,0.135,0.212,0.204,0.210,0.114,0.074,�k,3.7,��
2022/07/14,12:20,0.146,0.135,0.213,0.205,0.208,0.115,0.074,�k�k��,3.9,��
2022/07/14,12:30,0.144,0.135,0.211,0.208,0.207,0.114,0.075,�k,3.2,��
2022/07/14,12:40,0.144,0.138,0.213,0.208,0.207,0.113,0.073,�k,4.0,��
2022/07/14,12:50,0.146,0.137,0.214,0.207,0.208,0.115,0.074,�k,3.9,��
2022/07/14,13:00,0.146,0.136,0.215,0.205,0.208,0.114,0.074,�k,4.4,�L
2022/07/14,13:10,0.145,0.137,0.213,0.204,0.211,0.115,0.074,�k,4.5,�L
2022/07/14,13:20,0.145,0.138,0.213,0.206,0.212,0.116,0.074,�k,3.3,�L
2022/07/14,13:30,0.146,0.136,0.214,0.208,0.210,0.115,0.074,�k,3.2,�L
2022/07/14,13:40,0.145,0.136,0.215,0.206,0.209,0.115,0.074,�k,3.5,�L
2022/07/14,13:50,0.145,0.137,0.212,0.207,0.213,0.116,0.075,�k�k��,3.3,�L
2022/07/14,14:00,0.147,0.137,0.215,0.209,0.211,0.114,0.074,�k�k��,3.1,�L
2022/07/14,14:10,0.146,0.136,0.215,0.207,0.209,0.115,0.075,�k,2.9,�L
2022/07/14,14:20,0.145,0.137,0.213,0.206,0.212,0.114,0.075,�k,3.8,�L
2022/07/14,14:30,0.147,0.137,0.214,0.209,0.212,0.115,0.075,�k,3.7,�L
2022/07/14,14:40,0.146,0.137,0.215,0.207,0.209,0.115,0.075,�k,3.3,�L
2022/07/14,14:50,0.146,0.137,0.214,0.206,0.210,0.115,0.076,�k,2.7,�L
2022/07/14,15:00,0.147,0.136,0.215,0.209,0.212,0.116,0.075,�k�k��,3.8,�L
2022/07/14,15:10,0.146,0.136,0.214,0.207,0.209,0.114,0.074,�k�k��,3.7,�L
2022/07/14,15:20,0.145,0.137,0.212,0.205,0.209,0.115,0.075,�k,3.1,�L
2022/07/14,15:30,0.147,0.135,0.215,0.208,0.212,0.115,0.075,�k�k��,3.1,�L
2022/07/14,15:40,0.145,0.137,0.213,0.206,0.209,0.114,0.075,�k�k��,3.5,�L
2022/07/14,15:50,0.146,0.137,0.213,0.206,0.209,0.116,0.075,�k�k��,2.9,�L
2022/07/14,16:00,0.146,0.137,0.216,0.208,0.211,0.115,0.074,�k��,3.5,�L
2022/07/14,16:10,0.146,0.138,0.212,0.206,0.209,0.115,0.076,�k��,4.0,�L
2022/07/14,16:20,0.146,0.136,0.215,0.207,0.210,0.116,0.075,�k��,3.7,�L
2022/07/14,16:30,0.146,0.138,0.214,0.206,0.211,0.115,0.075,�k��,4.1,�L
2022/07/14,16:40,0.145,0.136,0.213,0.205,0.208,0.114,0.075,�k��,3.7,�L
2022/07/14,16:50,0.146,0.137,0.215,0.207,0.210,0.117,0.075,�k�k��,3.3,�L
2022/07/14,17:00,0.145,0.136,0.213,0.204,0.210,0.115,0.074,�k��,2.6,�L
2022/07/14,17:10,0.145,0.136,0.213,0.205,0.208,0.114,0.074,�k��,2.5,�L
2022/07/14,17:20,0.146,0.137,0.214,0.206,0.211,0.115,0.075,�k�k��,2.9,�L
2022/07/14,17:30,0.145,0.137,0.212,0.204,0.209,0.115,0.074,�k�k��,2.1,�L
2022/07/14,17:40,0.146,0.136,0.215,0.206,0.210,0.115,0.075,�k�k��,2.5,�L
2022/07/14,17:50,0.147,0.136,0.212,0.206,0.212,0.115,0.075,�k��,2.4,�L
2022/07/14,18:00,0.144,0.135,0.212,0.204,0.208,0.114,0.074,�k��,2.8,�L
2022/07/14,18:10,0.146,0.136,0.214,0.207,0.208,0.114,0.074,�k��,2.4,�L
2022/07/14,18:20,0.146,0.137,0.212,0.206,0.211,0.115,0.074,�k��,2.5,�L
2022/07/14,18:30,0.145,0.135,0.213,0.205,0.208,0.115,0.074,�k��,2.4,�L
2022/07/14,18:40,0.146,0.136,0.214,0.207,0.210,0.114,0.073,�k��,2.1,�L
2022/07/14,18:50,0.146,0.136,0.211,0.205,0.210,0.115,0.074,�k,1.8,�L
2022/07/14,19:00,0.145,0.135,0.214,0.205,0.207,0.114,0.075,�k�k��,1.5,�L
2022/07/14,19:10,0.147,0.136,0.213,0.207,0.210,0.114,0.074,�k��,1.2,�L
2022/07/14,19:20,0.146,0.135,0.213,0.204,0.210,0.115,0.075,�k,1.0,�L
2022/07/14,19:30,0.146,0.137,0.215,0.206,0.207,0.114,0.075,�k�k��,1.0,�L
2022/07/14,19:40,0.146,0.136,0.213,0.205,0.210,0.115,0.075,-,CALM,�L
2022/07/14,19:50,0.145,0.137,0.213,0.205,0.208,0.115,0.075,��,0.8,�L
2022/07/14,20:00,0.147,0.138,0.214,0.207,0.208,0.116,0.075,-,CALM,�L
2022/07/14,20:10,0.145,0.136,0.212,0.204,0.211,0.114,0.074,-,CALM,�L
2022/07/14,20:20,0.144,0.137,0.215,0.206,0.208,0.116,0.075,-,CALM,�L
2022/07/14,20:30,0.147,0.136,0.212,0.206,0.210,0.115,0.075,��쓌,1.0,�L
2022/07/14,20:40,0.146,0.136,0.213,0.204,0.210,0.116,0.075,���쓌,1.4,�L
2022/07/14,20:50,0.145,0.136,0.213,0.207,0.209,0.114,0.075,�쓌,0.9,�L
2022/07/14,21:00,0.146,0.135,0.211,0.206,0.211,0.114,0.075,���쓌,1.7,�L
2022/07/14,21:10,0.145,0.136,0.214,0.205,0.209,0.115,0.075,��쓌,1.4,�L
2022/07/14,21:20,0.146,0.137,0.211,0.207,0.208,0.114,0.075,�쓌,1.7,��
2022/07/14,21:30,0.145,0.135,0.213,0.204,0.211,0.114,0.074,�쓌,2.5,�L
2022/07/14,21:40,0.144,0.135,0.213,0.205,0.208,0.114,0.075,�쓌,2.4,�L
2022/07/14,21:50,0.146,0.135,0.211,0.206,0.208,0.114,0.073,�쓌,2.4,�L
2022/07/14,22:00,0.145,0.136,0.213,0.205,0.210,0.113,0.074,���쓌,2.2,�L
2022/07/14,22:10,0.144,0.135,0.212,0.206,0.208,0.114,0.075,�쓌,2.9,�L
2022/07/14,22:20,0.145,0.135,0.211,0.205,0.209,0.114,0.074,��쓌,2.0,�L
2022/07/14,22:30,0.144,0.135,0.213,0.204,0.211,0.113,0.074,�쓌,1.8,��
2022/07/14,22:40,0.144,0.136,0.210,0.207,0.207,0.114,0.074,��쓌,1.7,��
2022/07/14,22:50,0.145,0.135,0.212,0.205,0.208,0.114,0.073,�쓌,1.7,�L
2022/07/14,23:00,0.144,0.137,0.212,0.205,0.209,0.114,0.074,��쓌,1.9,�L
2022/07/14,23:10,0.144,0.135,0.209,0.206,0.207,0.114,0.073,�쓌,2.3,�L
2022/07/14,23:20,0.145,0.136,0.213,0.203,0.211,0.115,0.075,�쓌,1.9,�L
2022/07/14,23:30,0.145,0.135,0.212,0.204,0.208,0.115,0.074,�쓌,2.1,�L
2022/07/14,23:40,0.144,0.135,0.211,0.205,0.207,0.114,0.074,�쓌,2.4,��
2022/07/14,23:50,0.145,0.136,0.213,0.204,0.210,0.114,0.074,�쓌,1.8,��
